Regional Weather Roundup
Issued by NWS

Home | Current Version | Previous Version | Text Only | Print | Product List | Glossary On
Versions: 1 2 3 4 5 6 7 8 9 10 11 12 13 14 15 16 17 18 19 20 21 22 23 24 25 26 27 28 29 30 31 32 33 34 35 36 37 38 39 40 41 42 43 44 45 46 47 48 49 50
000
ASCA44 KEWX 281920
RWRMX

LATIN AMERICA AND CARIBBEAN REGIONAL WEATHER ROUNDUP
NATIONAL WEATHER SERVICE AUSTIN/SAN ANTONIO TX
200 PM CDT FRI AUG 28 2015

NOTE: "FAIR" INDICATED FEW OR NO CLOUDS BELOW 12,000 FEET WITH NO
SIGNIFICANT WEATHER AND/OR OBSTRUCTIONS TO VISIBILITY.

BAJA CALIFORNIA

CITY           SKY/WX    TMP DP  RH WIND       PRES   REMARKS
LORETO         MOSUNNY   93  77  59 NE6       29.81F HX 107
LA PAZ         MOSUNNY   99  64  32 CALM      29.86F HX 101
MEXICALI       SUNNY    104  64  27 SE7       29.83F HX 107
S.J. DEL CABO    N/A    N/A N/A N/A MISG        N/A
TIJUANA        SUNNY     93  50  22 W10       29.91F HX  90

NORTHWESTERN MEXICO

CITY           SKY/WX    TMP DP  RH WIND       PRES   REMARKS
CULIACAN       MOSUNNY   97  81  59 S5        29.86F HX 118
DURANGO        MOSUNNY   79  37  22 NW12      30.26F
GUAYMAS        MOSUNNY   99  75  47 S9        29.78F HX 111
HERMOSILLO     MOSUNNY   99  66  34 CALM      29.89F HX 102
CD. JUAREZ     PTSUNNY   95  59  30 CALM      30.06F HX  94
LOS MOCHIS     MOSUNNY   95  72  46 W9        29.84F HX 103
OBREGON        MOSUNNY   99  72  41 CALM      29.80F HX 107

NORTHEASTERN MEXICO

CITY           SKY/WX    TMP DP  RH WIND       PRES   REMARKS
CHIHUAHUA      PTSUNNY   88  48  25 N5        30.16F
MATAMOROS      PTSUNNY   95  72  46 CALM      30.00F HX 103
MONCLOVA         N/A    N/A N/A N/A MISG        N/A
MONTERREY      SUNNY     91  50  24 CALM      29.99F
NUEVO LAREDO   SUNNY     93  57  29 SE7       29.99F HX  92
PIEDRAS NEGRAS SUNNY     97  63  32 SE7       30.00F HX  98
REYNOSA        MOSUNNY   88  63  42 S2        29.98F
SALTILLO       SUNNY     84  61  45 N8        30.20F
TORREON        MOSUNNY   88  48  25 CALM      30.12F
CD. VICTORIA   PTSUNNY   90  63  40 E3        29.98F HX  90

WESTERN MEXICO

CITY           SKY/WX    TMP DP  RH WIND       PRES   REMARKS
AGUASCALIENTES MOSUNNY   75  46  35 CALM      30.28F
COLIMA         MOSUNNY   86  73  66 CALM      30.00F HX  93
DEL BAJIO      MOSUNNY   75  50  41 SE7       30.30F
GUADALAJARA    MOSUNNY   77  54  44 S7        30.20F
MANZANILLO     PTSUNNY   90  81  74 S9        29.82F HX 108
MAZATLAN       MOSUNNY   90  79  70 S12       29.86F HX 105
P. VALLARTA    PTSUNNY   90  79  70 S6        29.87F HX 105
URUAPAN        PTSUNNY   73  63  68 S9        30.18F
ZACATECAS      MOSUNNY   75  45  33 E17       30.30

CENTRAL MEXICO

CITY           SKY/WX    TMP DP  RH WIND       PRES   REMARKS
CUERNAVACA     PTSUNNY   77  61  57 CALM      30.14F
MEXICO CITY    PTSUNNY   66  48  52 N5        30.35F
MORELIA        MOSUNNY   77  55  47 CALM      30.24F
POZA RICA      PTSUNNY   91  73  55 N9        29.98F HX 100
PUEBLA         PTSUNNY   70  50  49 N7        30.33F
QUERETARO      PTSUNNY   70  50  49 E9        30.33F
S. LUIS POTOSI MOSUNNY   75  39  27 N10       30.25F
TAMPICO        MOSUNNY   88  72  58 N12       29.97F HX  94
TOLUCA         PTSUNNY   64  48  55 NW5       30.40F HAZE

SOUTHERN MEXICO

CITY           SKY/WX    TMP DP  RH WIND       PRES   REMARKS
ACAPULCO       PTSUNNY   88  79  74 SE5       29.88F HX 102
B. DE HUATULCO PTSUNNY   88  75  66 CALM      29.92F HX  97
OAXACA         RAIN      75  55  50 N7        30.17F
P. ESCONDIDO   CLOUDY    90  77  66 SW9       29.97F HX 102
VERACRUZ       MOSUNNY   88  73  62 NE9       29.94F HX  96
ZIHUATANEJO    MOSUNNY   93  77  59 SW8       29.87F HX 107

YUCATAN PENINSULA

CITY           SKY/WX    TMP DP  RH WIND       PRES   REMARKS
CAMPECHE       CLOUDY    90  77  66 E5        29.89F HX 102
CANCUN         PTSUNNY   90  77  66 E10       29.93F HX 102
CHETUMAL       PTSUNNY   88  75  66 E17       29.88F HX  97
CD. DEL CARMEN PTSUNNY   84  75  74 N9        29.91F HX  92
COZUMEL        PTSUNNY   82  77  83 NE9       29.92F HX  91
MERIDA         PTSUNNY   82  72  69 NE8       29.94F
MINATITLAN     PTSUNNY   84  68  58 N12       29.89S
TAPACHULA      PTSUNNY   88  77  70 NW12      29.87F HX 100
TUX. GUTIERREZ PTSUNNY   84  64  51 SW7       29.94F
VILLAHERMOSA   PTSUNNY   90  72  55 E12       29.91F HX  96

CENTRAL AMERICA

CITY           SKY/WX    TMP DP  RH WIND       PRES   REMARKS
BELIZE CITY    PTSUNNY   86  81  84 E7        29.88F HX 102
MANAGUA        PTCLDY    95  72  46 E14       29.77F HX 103

CARIBBEAN

CITY           SKY/WX    TMP DP  RH WIND       PRES   REMARKS
ARUBA          MOSUNNY   95  73  49 E23       29.74F HX 105
CURACAO        MOSUNNY   88  79  74 E13       29.83S HX 102
KINGSTON       MOSUNNY   90  77  66 S10       29.80F HX 102
SAN JUAN       PTSUNNY   88  75  66 E17G25    29.98F HX  97
SANTO DOMINGO  HVY RAIN  75  73  94 SE28G51   29.86R VSB 5/8
ST. CROIX      MOSUNNY   84  77  79 E15       30.00S HX  94
ST. KITTS      PTSUNNY   86  77  74 NE14      29.97F HX  97
ST. MAARTEN    MOSUNNY   86  75  70 E10       29.97F HX  95
ST. THOMAS     MOSUNNY   88  79  74 SE16      29.99S HX 102

$$




USA.gov is the U.S. government's official web portal to all federal, state and local government web resources and services.